Location: Maddington
(51.2000°N, 1.9167°W)
Time: 03:32:46
(UTC+00:00)

CZ-4C R/B - Pass Details

Date: 18 September 2020
Orbit: 627 x 1375 km, 63.4° (Epoch: 19 October)

Event Time Altitude Azimuth Distance (km) Brightness Sun altitude
Exits shadow 23:01:59 17° 50° (NE) 2,140 4.4 -35.9°
Drops below altitude 10° 23:03:24 10° 48° (NE) 2,663 5.0 -36.0°
Sets 23:06:14 0° 45° (NE) 3,738 5.9 -36.1°
